Orbital Elements at Epoch 2459200.5 (2020-Dec-17.0) TDB
Reference: JPL 22 (heliocentric ecliptic J2000)
Element | Value | Uncertainty (1-sigma) | Units |
e | .1138343202985597 | 4.2584e-08 | |
a | 2.877820575405623 | 1.815e-08 | au |
q | 2.550225826263115 | 1.2141e-07 | au |
i | 8.841705051956669 | 5.7015e-06 | deg |
node | 149.0940511446873 | 3.4599e-05 | deg |
peri | 105.4368964230667 | 4.646e-05 | deg |
M | 1.311009062735659 | 3.0048e-05 | deg |
tp | 2459194.006225701274 (2020-Dec-10.50622570) | 0.00014885 | TDB |
period | 1783.175123643451 4.88 | 1.687e-05 4.619e-08 | d yr |
n | .2018870694340073 | 1.9099e-09 | deg/d |
Q | 3.205415324548132 | 2.0216e-08 | au |
|
| | Orbit Determination Parameters
Additional Information
|